Regional Weather Roundup
Issued by NWS Charleston, SC

Home | Current Version | Previous Version | Text Only | Print | Product List | Glossary On
Versions: 1 2 3 4 5 6 7 8 9 10 11 12 13 14 15 16 17 18 19 20 21 22 23 24 25 26 27 28 29 30 31 32 33 34 35 36 37 38 39 40 41 42 43 44 45 46 47 48 49 50
000
ASUS42 KCHS 290613
RWRCHS

REGIONAL WEATHER ROUNDUP
NATIONAL WEATHER SERVICE CHARLESTON SC
200 AM EDT SUN MAY 29 2016

NOTE: "FAIR" INDICATES FEW OR NO CLOUDS BELOW 12,000 FEET WITH NO
SIGNIFICANT WEATHER AND/OR OBSTRUCTIONS TO VISIBILITY.

NOT ALL STATIONS ARE QUALITY CONTROLLED. USE DATA WITH CAUTION...
ESPECIALLY DEWPOINT OBSERVATIONS.

SCZ027-030-031-034>040-042>050-290700-
...SOUTHEAST SOUTH CAROLINA...

CITY           SKY/WX    TMP DP  RH WIND       PRES   REMARKS
N CHARLESTON   LGT RAIN  71  69  93 NE16      29.96F
6HR MIN TEMP:  68; 6HR MAX TEMP:  71; 6HR PCP:  0.86;

WATERFRONT PRK   N/A     72  72 100 N14       29.95F
MOUNT PLEASANT CLOUDY    72  72 100 N7        29.97F FOG
JOHNS ISLAND   LGT RAIN  72  72 100 NE10      29.96F
PINOPOLIS        N/A     73  72  94 NE13      29.95F
MONCKS CORNER  LGT RAIN  68  66  94 NE10      29.99F
SUMMERVILLE    CLOUDY    70  70 100 N8        30.00F
BEAUFORT MCAS  RAIN      68  67  96 NW13      29.97F FOG
6HR MIN TEMP:  68; 6HR MAX TEMP:  70; 6HR PCP:  1.28;

BEAUFORT ARPT  RAIN      68  68 100 NW16      29.97F
HILTON HEAD IS DRIZZLE   70  70 100 NW10G16   29.98F
WALTERBORO     DRIZZLE   70  70 100 N8        30.00F
ALLENDALE      LGT RAIN  66  66 100 N9        30.03F

...SOUTHERN MIDLANDS AND PEE DEE...

CITY           SKY/WX    TMP DP  RH WIND       PRES   REMARKS
GEORGETOWN     DRIZZLE   72  70  94 NE8       30.00F
KINGSTREE      CLOUDY    70  68  94 N6        30.03F
ORANGEBURG     LGT RAIN  69  66  90 N8        30.03F FOG
6HR MIN TEMP:  67; 6HR MAX TEMP:  70; 6HR PCP:  0.65;

BARNWELL       HVY RAIN  68  68 100 N6        30.08F
AIKEN          LGT RAIN  66  64  94 CALM      30.13F
MANNING        MOCLDY    68  68 100 N8        30.03F
COLUMBIA       LGT RAIN  71  67  87 NW6       30.06F
6HR MIN TEMP:  71; 6HR MAX TEMP:  73; 6HR PCP:  0.08;

SUMTER         DRIZZLE   70  68  94 N9        30.03F
6HR MIN TEMP:  70; 6HR MAX TEMP:  72; 6HR PCP:  0.06;

FLORENCE       CLOUDY    72  69  90 N8        30.05F
6HR MIN TEMP:  72; 6HR MAX TEMP:  73; 6HR PCP:  0.02;

MYRTLE BEACH   CLOUDY    73  64  73 NE10      30.03F
N MYRTLE BEACH CLOUDY    73  71  93 NE9       30.02F
6HR MIN TEMP:  72; 6HR MAX TEMP:  74; 6HR PCP:  0.07;


$$

GAZ063-065-086>088-099>101-113>116-118-119-134>141-150-290700-
...SOUTHEAST GEORGIA...

CITY           SKY/WX    TMP DP  RH WIND       PRES   REMARKS
SAVANNAH ARPT  LGT RAIN  69  67  93 W12       30.02F
6HR MIN TEMP:  69; 6HR MAX TEMP:  72; 6HR PCP:  0.62;

HUNTER AAF     CLOUDY    68  68 100 VRB7      29.99F
6HR MIN TEMP:  69; 6HR MAX TEMP:  72; 6HR PCP:  0.40;

FORT STEWART   CLOUDY    70  64  83 NW10      30.01F
6HR MIN TEMP:  69; 6HR MAX TEMP:  73; 6HR PCP: TRACE;

STATESBORO     RAIN      68  68 100 NW6       30.06F
SYLVANIA       LGT RAIN  69  67  94 N6        30.06F
CLAXTON        RAIN      70  67  89 W6        30.06F

...CSRA...CENTRAL AND FAR SOUTHEAST GEORGIA...

CITY           SKY/WX    TMP DP  RH WIND       PRES   REMARKS
THOMSON        CLOUDY    71  70  95 E6        30.15F
AUGUSTA-BUSH   LGT RAIN  67  65  93 CALM      30.09F
6HR MIN TEMP:  66; 6HR MAX TEMP:  74; 6HR PCP:  0.16;

AUGUSTA-DANIEL RAIN      69  63  81 CALM      30.11S
SWAINSBORO     CLOUDY    68  63  83 N3        30.09F
VIDALIA        CLOUDY    70  63  78 CALM      30.08F
EASTMAN        FAIR      71  64  79 CALM      30.11F
HAZLEHURST     FAIR      72  64  77 CALM      30.06F
ALMA           MOCLDY    70  64  81 W3        30.06F
6HR MIN TEMP:  69; 6HR MAX TEMP:  82;

WAYCROSS       CLEAR     67  65  93 N3        30.05F
JESUP          FAIR      64  61  88 NE6       30.04F
BAXLEY         FAIR      72  64  78 CALM      30.06F
BRUNSWICK      PTCLDY    72  68  88 W3        30.03F
SAINT SIMONS   CLEAR     70  67  90 W6        30.01F
6HR MIN TEMP:  70; 6HR MAX TEMP:  74;


$$

SCZ027-028-034-036>038-045-046-048>050-GAZ119-141-290700-
...LAKE AND SUPPLEMENTAL COASTAL OBSERVATIONS...

STATION/POSITION TIME  TEMP    WIND        PRES    WAVE   SWELL
                       AIR SEA DIR/SP/G            HT/PER HT/PER/DIR
                 (UTC) (F)     (DEG/KT/KT) (MB)    (FT/S) (FT/S/D)
WINYAH BAY       NOT AVBL
LAKE MURRAY      0500   70        CALM     1019.0S
ACE BASIN NERRS  NOT AVBL
FORT PULASKI     0500   70 77  300/ 11/ 14 1016.5F
SAPELO ISLAND    0500   71     320/  9     1017.0S

$$

ANZ835-935-AMZ111-154-330-350-352-354-370-450-454-472-290700-
...C-MAN AND BUOY OBSERVATIONS...

STATION/POSITION TIME  TEMP    WIND        PRES    WAVE   SWELL
                       AIR SEA DIR/SP/G            HT/PER HT/PER/DIR
                 (UTC) (F)     (DEG/KT/KT) (MB)    (FT/S) (FT/S/D)
BUOY 41004       0550   77 78   90/ 12/ 14 1013.3F   8/ 8   7/ 8
BUOY 41008       0550   72 76  310/ 16/ 19 1014.9F   5/ 9   3/ 80/ 9
FOLLY BEACH CMAN 0600   74      40/ 17/ 19 1014.2F
CAPERS NEARSHORE 0508   74 75   50/ 19/ 25 1015.1F
FRIPP NEARSHORE  0508   71 75  340/ 21/ 27 1013.8F


STATION/POSITION TIME  TEMP    WIND        PRES    WAVE   SWELL
                       AIR SEA DIR/SP/G            HT/PER HT/PER/DIR
                 (UTC) (F)     (DEG/KT/KT) (MB)    (FT/S) (FT/S/D)
5E ST. MARYS GA  0601      78                N/A     5/ 9
FRYING PAN BUOY  0500   78 77  110/ 21/ 27 1016.0F
BUOY 41025       0550   78 78  140/ 14/ 16 1019.3F   4/ 8   3/140/ 8
CAPE LOOKOUT NC  0500   75     100/  9/ 10 1018.9F
BUOY 41002       0550   75 75  120/ 14/ 16 1018.3F   5/ 8   3/100/ 8
BUOY 41010       0520   78 79  180/ 10/ 12 1016.9S
ST AUGUSTINE FL  0600   72 79  300/  4/  4 1018.1F


$$



USA.gov is the U.S. government's official web portal to all federal, state and local government web resources and services.